Location: Aubervilles
(48.9167°N, 2.3833°E)
Time: 12:17:30
(UTC+00:00)

Cosmos 1844 - Pass Details

Date: 03 February 2023
Orbit: 822 x 868 km, 70.9° (Epoch: 25 March)

Event Time Altitude Azimuth Distance (km) Brightness Sun altitude
Rises 17:54:59 0° 332° (NNW) 3,465 7.1 -10.8°
Reaches altitude 10° 17:57:30 10° 336° (NNW) 2,524 6.3 -11.2°
Maximum altitude 18:03:16 61° 57° (ENE) 978 3.8 -12.2°
Drops below altitude 10° 18:08:58 10° 138° (SE) 2,496 5.8 -13.1°
Sets 18:11:27 0° 142° (SE) 3,424 6.6 -13.5°
